Weather History for Grand Prairie, TX

Change the Weather History Date:

Monday, April 8, 2013

  Actual Average (KDFW) Record (KDFW)
Temperature  
Mean Temperature 68 °F 64 °F  
Max Temperature 73 °F 75 °F 93 °F (1991)
Min Temperature 64 °F 53 °F 32 °F (1938)
Degree Days  
Heating Degree Days 0 4  
Month to date heating degree days 36  
Since 1 July heating degree days 2229  
Cooling Degree Days 4 2  
Month to date cooling degree days 16  
Year to date cooling degree days 55  
Growing Degree Days 18 (Base 50)    
Moisture  
Dew Point 60 °F    
Average Humidity 74    
Maximum Humidity 83    
Minimum Humidity 68    
Precipitation  
Precipitation 0.00 in 0.09 in 2.23 in (2012)
Month to date precipitation 0.72  
Year to date precipitation 9.00  
Snow  
Snow 0.00 in 0.00 in T in (1938)
Month to date snowfall 0.0  
Since 1 July snowfall 1.2  
Snow Depth -    
Sea Level Pressure  
Sea Level Pressure 29.75 in    
Wind  
Wind Speed 14 mph (South)    
Max Wind Speed 18 mph    
Max Gust Speed 32 mph    
Visibility 10 miles    
Events      
T = Trace of Precipitation, MM = Missing Value Source: NWS Daily Summary

Daily Weather History Graph

Daily Weather History Graph

Search for Another Location

Airport:

Trip Planner

Search our weather history database for the weather conditions in past years. The results will help you decide how hot, cold, wet, or windy it might be!

Date:

Astronomy

Apr. 08, 2013 Rise Set
Actual Time 7:06 AM CDT 7:53 PM CDT
Civil Twilight 6:41 AM CDT 8:18 PM CDT
Nautical Twilight 6:12 AM CDT 8:48 PM CDT
Astronomical Twilight 5:42 AM CDT 9:18 PM CDT
Moon 5:52 AM CDT (4/8) 6:32 PM CDT (4/8)
Length of Visible Light 13h 36m
Length of Day
12h 46m
Waning Crescent, 3% of the Moon is Illuminated
Apr 8
Waning Crescent
Apr 10
New
Apr 18
First Quarter
Apr 25
Full
May 2
Last Quarter

Hourly Weather History & Observations

Time (CDT) Temp. Dew Point Humidity Pressure Visibility Wind Dir Wind Speed Gust Speed Precip Events Conditions
12:15 AM 68.0 °F 57.2 °F 68% 29.78 in 10.0 mi South 17.3 mph 24.2 mph N/A   Clear
12:35 AM 68.0 °F 57.2 °F 68% 29.78 in 10.0 mi South 13.8 mph 26.5 mph N/A   Clear
12:55 AM 68.0 °F 57.2 °F 68% 29.79 in 10.0 mi South 11.5 mph 26.5 mph N/A   Clear
1:15 AM 68.0 °F 57.2 °F 68% 29.79 in 10.0 mi South 13.8 mph 23.0 mph N/A   Clear
1:35 AM 66.2 °F 57.2 °F 73% 29.79 in 10.0 mi South 15.0 mph 20.7 mph N/A   Clear
1:55 AM 64.4 °F 57.2 °F 77% 29.79 in 10.0 mi South 13.8 mph 19.6 mph N/A   Clear
2:15 AM 64.4 °F 57.2 °F 77% 29.79 in 10.0 mi South 16.1 mph 20.7 mph N/A   Clear
2:35 AM 64.4 °F 55.4 °F 73% 29.78 in 10.0 mi South 11.5 mph 20.7 mph N/A   Scattered Clouds
2:55 AM 64.4 °F 57.2 °F 77% 29.77 in 10.0 mi South 12.7 mph 21.9 mph N/A   Mostly Cloudy
3:15 AM 64.4 °F 57.2 °F 77% 29.76 in 10.0 mi South 11.5 mph 20.7 mph N/A   Overcast
3:35 AM 64.4 °F 57.2 °F 77% 29.76 in 10.0 mi South 12.7 mph 23.0 mph N/A   Overcast
3:55 AM 64.4 °F 57.2 °F 77% 29.76 in 10.0 mi South 15.0 mph 20.7 mph N/A   Overcast
4:15 AM 64.4 °F 59.0 °F 83% 29.75 in 10.0 mi South 11.5 mph 21.9 mph N/A   Overcast
4:35 AM 66.2 °F 59.0 °F 78% 29.75 in 10.0 mi South 16.1 mph 26.5 mph N/A   Overcast
4:55 AM 66.2 °F 59.0 °F 78% 29.75 in 10.0 mi South 12.7 mph 24.2 mph N/A   Overcast
5:15 AM 64.4 °F 59.0 °F 83% 29.75 in 10.0 mi South 13.8 mph 20.7 mph N/A   Overcast
5:35 AM 64.4 °F 59.0 °F 83% 29.75 in 10.0 mi South 13.8 mph 25.3 mph N/A   Overcast
5:55 AM 64.4 °F 59.0 °F 83% 29.76 in 10.0 mi South 13.8 mph 19.6 mph N/A   Overcast
6:15 AM 64.4 °F 59.0 °F 83% 29.75 in 10.0 mi South 15.0 mph 24.2 mph N/A   Overcast
6:35 AM 66.2 °F 59.0 °F 78% 29.75 in 10.0 mi South 13.8 mph 23.0 mph N/A   Mostly Cloudy
6:50 AM 66.2 °F 60.8 °F 83% 29.76 in 10.0 mi South 10.4 mph 23.0 mph N/A   Scattered Clouds
6:55 AM 66.2 °F 59.0 °F 78% 29.76 in 10.0 mi South 17.3 mph 21.9 mph N/A   Scattered Clouds
7:50 AM 66.2 °F 59.0 °F 78% 29.77 in 10.0 mi South 13.8 mph 18.4 mph N/A   Overcast
9:50 AM 69.8 °F 60.8 °F 73% 29.78 in 10.0 mi South 16.1 mph 25.3 mph N/A   Overcast
10:50 AM 71.6 °F 60.8 °F 69% 29.78 in 10.0 mi South 16.1 mph 29.9 mph N/A   Mostly Cloudy
11:50 AM 73.4 °F 62.6 °F 69% 29.78 in 10.0 mi South 18.4 mph 32.2 mph N/A   Mostly Cloudy
12:50 PM 73.4 °F 62.6 °F 69% 29.76 in 10.0 mi SSE 16.1 mph 32.2 mph N/A   Mostly Cloudy
2:50 PM 73.4 °F 62.6 °F 69% 29.75 in 10.0 mi SSE 15.0 mph 24.2 mph N/A   Mostly Cloudy
2:59 PM 73.4 °F 62.6 °F 69% 29.75 in 10.0 mi SSE 16.1 mph 27.6 mph N/A   Mostly Cloudy
3:50 PM 73.4 °F 62.6 °F 69% 29.72 in 10.0 mi SSE 16.1 mph 24.2 mph N/A   Mostly Cloudy
4:50 PM 73.4 °F 62.6 °F 69% 29.71 in 10.0 mi SSE 16.1 mph 24.2 mph N/A   Mostly Cloudy
6:59 PM 73.4 °F 62.6 °F 69% 29.70 in 10.0 mi SSE 9.2 mph 21.9 mph N/A   Overcast
7:50 PM 73.4 °F 62.6 °F 69% 29.70 in 10.0 mi SE 6.9 mph - N/A   Overcast
8:50 PM 71.6 °F 62.6 °F 73% 29.70 in 10.0 mi SSE 8.1 mph - N/A   Mostly Cloudy
9:15 PM 71.6 °F 62.6 °F 73% 29.69 in 10.0 mi SSE 10.4 mph 16.1 mph N/A   Scattered Clouds
9:35 PM 71.6 °F 62.6 °F 73% 29.71 in 10.0 mi SSE 10.4 mph 17.3 mph N/A   Mostly Cloudy
9:55 PM 71.6 °F 60.8 °F 69% 29.72 in 10.0 mi SSE 9.2 mph - N/A   Overcast
10:15 PM 71.6 °F 60.8 °F 69% 29.73 in 10.0 mi SSE 5.8 mph - N/A   Overcast
10:35 PM 71.6 °F 60.8 °F 69% 29.73 in 10.0 mi SE 6.9 mph - N/A   Overcast
10:55 PM 71.6 °F 60.8 °F 69% 29.73 in 10.0 mi SSE 6.9 mph - N/A   Overcast
11:15 PM 71.6 °F 60.8 °F 69% 29.73 in 10.0 mi SSE 8.1 mph - N/A   Overcast
11:35 PM 71.6 °F 60.8 °F 69% 29.73 in 10.0 mi SSE 6.9 mph 18.4 mph N/A   Overcast